GW3962 Weather Reports


Display with metric or nautical units.
time (UTC)temp
F
wind
direction
speed
MPH
gust
MPH
rain 1hr
in
rain 24hr
in
rain mn
in
humidity
%
barometer
mb
20260506204625 63 333 3.0 5.0 0.00 0.02 0.02 82 1013.3
20260506204121 62 46 6.0 8.0 0.00 0.02 0.02 82 1013.2
20260506203619 61 7 9.0 11.0 0.00 0.02 0.02 84 1013.3
20260506203116 61 37 2.0 3.0 0.00 0.02 0.02 84 1013.6
20260506202614 62 2 2.0 2.0 0.00 0.02 0.02 83 1013.6
20260506202109 62 34 8.0 13.0 0.00 0.02 0.02 83 1013.2
20260506201607 62 3 7.0 14.0 0.00 0.02 0.02 83 1013.3
20260506201103 62 338 7.0 11.0 0.00 0.02 0.02 83 1013.2
20260506200559 62 52 7.0 9.0 0.00 0.02 0.02 83 1013.2
20260506200056 64 143 7.0 9.0 0.00 0.02 0.02 81 1013.1
20260506195553 64 317 12.0 20.0 0.00 0.02 0.02 80 1013.1
20260506195050 65 330 4.0 7.0 0.00 0.02 0.02 79 1013.1
20260506194548 65 324 6.0 9.0 0.00 0.02 0.02 80 1013.1
20260506194043 65 15 8.0 13.0 0.00 0.02 0.02 81 1013.1
20260506193541 65 22 7.0 10.0 0.00 0.02 0.02 81 1013.2
20260506193038 65 335 6.0 9.0 0.00 0.02 0.02 82 1013.0
20260506192534 64 35 9.0 14.0 0.00 0.02 0.02 82 1013.1
20260506192030 65 20 3.0 7.0 0.00 0.02 0.02 83 1012.9
20260506191527 65 37 9.0 16.0 0.00 0.02 0.02 83 1013.1
20260506191023 64 352 15.0 18.0 0.00 0.02 0.02 85 1013.2
20260506190521 65 28 6.0 8.0 0.00 0.02 0.02 83 1013.0
20260506190019 65 341 11.0 15.0 0.00 0.02 0.02 85 1013.2
20260506185515 66 354 12.0 17.0 0.00 0.02 0.02 83 1013.0
20260506185011 67 38 9.0 11.0 0.00 0.02 0.02 82 1013.2
20260506184509 67 328 7.0 14.0 0.00 0.02 0.02 82 1013.1
20260506184006 68 27 8.0 10.0 0.00 0.02 0.02 81 1012.9
20260506183501 73 37 9.0 11.0 0.00 0.02 0.02 76 1012.9
20260506182958 73 43 5.0 8.0 0.00 0.02 0.02 75 1012.5
20260506182455 75 39 5.0 9.0 0.00 0.02 0.02 74 1012.6
20260506181948 75 7 2.0 3.0 0.00 0.02 0.02 73 1012.7
20260506181446 74 21 3.0 3.0 0.00 0.02 0.02 74 1012.7
20260506180942 74 58 6.0 7.0 0.00 0.02 0.02 74 1012.9
20260506180438 74 333 3.0 5.0 0.00 0.02 0.02 73 1012.7
20260506175935 73 74 4.0 5.0 0.00 0.02 0.02 77 1012.6
20260506175432 73 14 1.0 1.0 0.00 0.02 0.02 76 1012.6
20260506174928 72 13 5.0 7.0 0.00 0.02 0.02 78 1012.6
20260506174426 71 93 3.0 6.0 0.00 0.02 0.02 79 1012.1
20260506173917 71 306 1.0 2.0 0.00 0.02 0.02 80 1012.1
20260506173414 71 53 3.0 7.0 0.00 0.02 0.02 80 1012.1
20260506172911 69 80 4.0 7.0 0.00 0.02 0.02 82 1012.2
20260506172407 69 339 2.0 5.0 0.00 0.02 0.02 82 1012.3
20260506171905 68 325 1.0 2.0 0.00 0.02 0.02 84 1012.1
20260506171402 68 352 2.0 3.0 0.00 0.02 0.02 85 1012.3
20260506170859 66 11 3.0 5.0 0.00 0.02 0.02 88 1012.3
20260506170355 65 83 8.0 10.0 0.00 0.02 0.02 90 1012.2
20260506165849 64 0 9.0 13.0 0.00 0.02 0.02 93 1012.3
20260506165346 64 44 4.0 7.0 0.00 0.02 0.02 94 1012.3
20260506164842 62 65 8.0 13.0 0.00 0.02 0.02 95 1012.3
20260506164339 62 56 6.0 9.0 0.00 0.02 0.02 95 1012.3
20260506163837 62 65 6.0 8.0 0.00 0.02 0.02 95 1012.9
20260506163331 61 25 5.0 6.0 0.00 0.02 0.02 95 1012.6
20260506162827 62 346 5.0 7.0 0.07 0.02 0.02 95 1013.1
20260506162325 62 64 9.0 13.0 0.12 0.02 0.02 95 1013.2
20260506161822 61 7 8.0 11.0 0.05 0.01 0.01 95 1013.4
20260506161319 61 347 5.0 7.0 0.00 0.00 0.00 94 1013.6
20260506160812 61 52 7.0 11.0 0.00 0.00 0.00 93 1013.6
20260506160308 61 357 9.0 14.0 0.00 0.00 0.00 92 1013.6
20260506155807 61 37 8.0 11.0 0.00 0.00 0.00 91 1014.1
20260506155306 61 32 7.0 14.0 0.00 0.00 0.00 92 1014.0
20260506153415 63 53 9.0 16.0 0.00 0.00 0.00 92 1013.3
20260506152913 63 39 5.0 7.0 0.00 0.00 0.00 92 1013.6
20260506152409 64 57 7.0 15.0 0.00 0.00 0.00 92 1013.4
20260506151908 64 40 9.0 14.0 0.00 0.00 0.00 92 1013.3
20260506151404 65 17 5.0 6.0 0.00 0.00 0.00 92 1013.2
20260506150902 65 350 6.0 10.0 0.00 0.00 0.00 92 1013.1
20260506150358 65 357 4.0 6.0 0.00 0.00 0.00 92 1013.0
20260506145855 65 336 5.0 8.0 0.00 0.00 0.00 92 1012.7
20260506145351 66 18 8.0 14.0 0.00 0.00 0.00 92 1012.6
20260506144849 66 14 5.0 8.0 0.00 0.00 0.00 92 1012.2
20260506144345 67 48 11.0 15.0 0.00 0.00 0.00 91 1011.7
20260506143844 68 15 7.0 9.0 0.00 0.00 0.00 91 1011.8
20260506143340 69 325 7.0 9.0 0.00 0.00 0.00 90 1011.9
20260506142839 72 338 8.0 11.0 0.00 0.00 0.00 87 1011.4
20260506142336 77 317 0.0 0.0 0.00 0.00 0.00 86 1011.3
20260506141834 77 275 2.0 3.0 0.00 0.00 0.00 88 1010.7
20260506141332 76 201 0.0 1.0 0.00 0.00 0.00 89 1010.7
20260506140830 76 161 2.0 3.0 0.00 0.00 0.00 89 1010.8
20260506140327 76 128 4.0 6.0 0.00 0.00 0.00 89 1011.0
20260506135824 76 271 1.0 2.0 0.00 0.00 0.00 90 1010.8
20260506135320 75 295 1.0 1.0 0.00 0.00 0.00 90 1011.2
20260506134817 75 299 0.0 1.0 0.00 0.00 0.00 91 1011.0
20260506134313 75 283 2.0 2.0 0.00 0.00 0.00 91 1010.6
20260506133810 75 215 1.0 1.0 0.00 0.00 0.00 92 1010.5
20260506133307 75 318 1.0 1.0 0.00 0.00 0.00 92 1010.8
20260506132804 74 302 1.0 1.0 0.00 0.00 0.00 92 1010.9
20260506132301 74 302 2.0 2.0 0.00 0.00 0.00 93 1010.7
20260506131759 74 191 4.0 5.0 0.00 0.00 0.00 93 1010.7
20260506131254 75 204 3.0 5.0 0.00 0.00 0.00 92 1010.3
20260506130751 75 219 5.0 6.0 0.00 0.00 0.00 92 1010.2
20260506130248 75 139 4.0 6.0 0.00 0.00 0.00 93 1010.2
20260506125746 74 175 3.0 3.0 0.00 0.00 0.00 94 1010.2
20260506125244 74 169 3.0 3.0 0.00 0.00 0.00 94 1010.0
20260506124742 74 173 2.0 2.0 0.00 0.00 0.00 93 1010.3
20260506124239 74 143 5.0 6.0 0.00 0.00 0.00 94 1010.1
20260506123737 73 137 3.0 3.0 0.00 0.00 0.00 94 1009.6
20260506123235 73 193 3.0 5.0 0.00 0.00 0.00 94 1010.1
20260506122732 73 178 3.0 5.0 0.00 0.00 0.00 94 1009.8
20260506122229 73 197 4.0 5.0 0.00 0.00 0.00 95 1009.6
20260506121728 73 204 2.0 3.0 0.00 0.00 0.00 95 1009.8
20260506121224 73 249 3.0 5.0 0.00 0.00 0.00 95 1010.0
20260506120722 73 220 4.0 5.0 0.00 0.00 0.00 95 1009.9
20260506120219 73 208 3.0 5.0 0.00 0.00 0.00 94 1009.9
20260506115717 73 212 4.0 5.0 0.00 0.00 0.00 94 1010.0
20260506115214 73 266 3.0 3.0 0.00 0.00 0.00 94 1009.8
20260506114712 73 235 5.0 6.0 0.00 0.00 0.00 94 1009.9
20260506114209 73 198 5.0 7.0 0.00 0.00 0.00 94 1009.6
20260506113708 73 208 5.0 7.0 0.00 0.00 0.00 94 1009.6
20260506113205 73 251 5.0 6.0 0.00 0.00 0.00 94 1009.8
20260506112701 73 199 4.0 5.0 0.00 0.00 0.00 94 1009.9
20260506112159 73 257 4.0 5.0 0.00 0.00 0.00 94 1010.0
20260506111656 73 237 2.0 2.0 0.00 0.00 0.00 94 1010.3
20260506111154 73 253 3.0 3.0 0.00 0.00 0.00 94 1010.0
20260506110651 73 264 2.0 2.0 0.00 0.00 0.00 94 1010.1
20260506110148 73 220 4.0 5.0 0.00 0.00 0.00 94 1010.1
20260506105644 73 246 3.0 3.0 0.00 0.00 0.00 94 1010.0
20260506105141 74 221 4.0 5.0 0.00 0.00 0.00 93 1009.9
20260506104640 74 224 5.0 6.0 0.00 0.00 0.00 93 1010.1
20260506104137 74 210 4.0 6.0 0.00 0.00 0.00 93 1009.8
20260506103634 74 224 6.0 6.0 0.00 0.00 0.00 93 1009.9
20260506103131 74 259 3.0 3.0 0.00 0.00 0.00 93 1009.6
20260506102629 74 220 5.0 6.0 0.00 0.00 0.00 93 1009.9
20260506102126 74 251 3.0 5.0 0.00 0.00 0.00 93 1009.9
20260506101623 74 235 4.0 5.0 0.00 0.00 0.00 93 1009.6
20260506101119 74 221 5.0 6.0 0.00 0.00 0.00 93 1009.3
20260506100618 74 240 6.0 7.0 0.00 0.00 0.00 92 1009.5
20260506100116 74 220 6.0 8.0 0.00 0.00 0.00 92 1009.4
20260506095615 74 223 6.0 7.0 0.00 0.00 0.00 92 1009.1
20260506095111 74 221 5.0 6.0 0.00 0.00 0.00 92 1009.4
20260506094608 74 218 5.0 7.0 0.00 0.00 0.00 92 1009.3
20260506094106 74 204 6.0 7.0 0.00 0.00 0.00 92 1009.3
20260506093604 74 215 4.0 6.0 0.00 0.00 0.00 92 1009.1
20260506093101 74 198 5.0 5.0 0.00 0.00 0.00 92 1009.0
20260506092559 74 208 6.0 7.0 0.00 0.00 0.00 92 1008.8
20260506092055 74 232 8.0 9.0 0.00 0.00 0.00 92 1008.9
20260506091554 74 238 6.0 7.0 0.00 0.00 0.00 92 1008.9
20260506091051 74 212 7.0 8.0 0.00 0.00 0.00 92 1008.8
20260506090549 74 239 6.0 7.0 0.00 0.00 0.00 92 1008.6
20260506090045 74 214 5.0 6.0 0.00 0.00 0.00 92 1008.8
20260506085542 74 219 11.0 13.0 0.00 0.00 0.00 92 1008.6
20260506085038 74 198 8.0 10.0 0.00 0.00 0.00 92 1008.6
20260506084535 74 196 7.0 9.0 0.00 0.00 0.00 92 1008.5
20260506084031 74 215 5.0 6.0 0.00 0.00 0.00 92 1008.8
20260506083528 74 257 6.0 6.0 0.00 0.00 0.00 92 1008.8
20260506083026 74 180 9.0 10.0 0.00 0.00 0.00 92 1008.6
20260506082523 74 222 8.0 10.0 0.00 0.00 0.00 92 1008.7
20260506082018 74 208 8.0 10.0 0.00 0.00 0.00 92 1008.4
20260506081517 74 213 7.0 9.0 0.00 0.00 0.00 92 1008.5
20260506081014 74 241 6.0 7.0 0.00 0.00 0.00 92 1008.5
20260506080511 74 203 11.0 13.0 0.00 0.00 0.00 92 1008.7
20260506073454 74 203 11.0 15.0 0.00 0.00 0.00 92 1008.8
20260506072952 74 185 13.0 17.0 0.00 0.00 0.00 91 1008.8
20260506072449 74 174 11.0 14.0 0.00 0.00 0.00 91 1009.0
20260506071947 74 194 11.0 13.0 0.00 0.00 0.00 91 1009.2
20260506071444 74 212 10.0 13.0 0.00 0.00 0.00 91 1008.8
20260506070941 74 206 11.0 13.0 0.00 0.00 0.00 91 1008.9
20260506070438 74 203 12.0 14.0 0.00 0.00 0.00 91 1008.9
20260506062416 74 204 16.0 17.0 0.00 0.00 0.00 91 1008.8
20260506061911 74 210 11.0 13.0 0.00 0.00 0.00 91 1008.7
20260506061408 74 218 12.0 17.0 0.00 0.00 0.00 91 1008.9
20260506060906 75 198 9.0 13.0 0.00 0.00 0.00 91 1009.3
20260506060404 75 210 8.0 11.0 0.00 0.00 0.00 91 1008.8
20260506051336 75 231 9.0 11.0 0.00 0.00 0.00 92 1009.0
20260506050833 75 244 8.0 9.0 0.00 0.00 0.00 91 1009.1
20260506050330 75 200 6.0 7.0 0.00 0.00 0.00 91 1008.9
20260506044821 75 179 7.0 9.0 0.00 0.00 0.00 91 1009.1
20260506044319 75 235 6.0 9.0 0.00 0.00 0.00 91 1008.9
20260506043815 75 243 9.0 11.0 0.00 0.00 0.00 91 1008.8
20260506043313 75 193 11.0 13.0 0.00 0.00 0.00 91 1009.3
20260506042811 75 189 7.0 9.0 0.00 0.00 0.00 91 1008.9
20260506042310 75 198 8.0 11.0 0.00 0.00 0.00 91 1008.8
20260506041808 75 194 6.0 7.0 0.00 0.00 0.00 91 1009.0
20260506041305 75 182 11.0 13.0 0.00 0.00 0.00 91 1008.8
20260506040802 75 184 7.0 9.0 0.00 0.00 0.00 90 1009.0
20260506040259 75 203 5.0 5.0 0.00 0.00 0.00 90 1008.9
20260506035756 75 251 5.0 6.0 0.00 0.00 0.00 90 1008.9
20260506035253 76 229 9.0 10.0 0.00 0.00 0.00 90 1008.8
20260506034750 76 221 9.0 11.0 0.00 0.00 0.00 89 1008.6
20260506034247 76 194 5.0 7.0 0.00 0.00 0.00 89 1008.7
20260506033744 76 198 9.0 10.0 0.00 0.00 0.00 89 1008.3
20260506033241 76 175 7.0 9.0 0.00 0.00 0.00 88 1008.5
20260506032738 77 201 8.0 8.0 0.00 0.00 0.00 87 1008.5
20260506032235 77 220 6.0 8.0 0.00 0.00 0.00 87 1008.5
20260506031726 77 184 6.0 9.0 0.00 0.00 0.00 86 1008.4
20260506031224 77 185 3.0 3.0 0.00 0.00 0.00 86 1008.4
20260506030722 77 210 7.0 8.0 0.00 0.00 0.00 86 1008.2
20260506030219 77 205 4.0 5.0 0.00 0.00 0.00 85 1008.2
20260506025716 77 218 4.0 6.0 0.00 0.00 0.00 85 1008.1
20260506025212 77 230 5.0 6.0 0.00 0.00 0.00 85 1008.0
20260506024709 77 259 2.0 2.0 0.00 0.00 0.00 84 1007.9
20260506024205 78 215 5.0 6.0 0.00 0.00 0.00 84 1008.0
20260506023702 78 199 6.0 7.0 0.00 0.00 0.00 83 1008.0
20260506023200 78 216 5.0 6.0 0.00 0.00 0.00 83 1007.8
20260506022656 78 202 3.0 3.0 0.00 0.00 0.00 83 1007.8
20260506022154 78 207 5.0 7.0 0.00 0.00 0.00 83 1007.6
20260506021652 78 179 4.0 5.0 0.00 0.00 0.00 83 1007.2
20260506021148 78 216 8.0 9.0 0.00 0.00 0.00 82 1007.5
20260506020645 78 208 6.0 6.0 0.00 0.00 0.00 82 1007.1
20260506020143 78 210 5.0 6.0 0.00 0.00 0.00 82 1007.2
20260506015640 78 197 4.0 5.0 0.00 0.00 0.00 82 1007.0
20260506015137 79 188 4.0 6.0 0.00 0.00 0.00 82 1006.9
20260506014635 79 194 7.0 9.0 0.00 0.00 0.00 81 1006.9
20260506014131 79 209 4.0 5.0 0.00 0.00 0.00 81 1007.0
20260506013629 79 178 6.0 8.0 0.00 0.00 0.00 81 1006.8
20260506013125 79 176 5.0 6.0 0.00 0.00 0.00 80 1006.9
20260506012621 79 205 4.0 5.0 0.00 0.00 0.00 80 1006.9
20260506012117 79 176 6.0 7.0 0.00 0.00 0.00 80 1006.7
20260506011615 79 187 7.0 8.0 0.00 0.00 0.00 79 1007.0
20260506011111 80 205 5.0 6.0 0.00 0.00 0.00 79 1006.8
20260506010605 80 219 6.0 8.0 0.00 0.00 0.00 78 1006.7
20260506005559 80 217 6.0 7.0 0.00 0.00 0.00 78 1006.9
20260506005055 80 195 9.0 9.0 0.00 0.00 0.00 77 1006.9
20260506004552 80 202 8.0 10.0 0.00 0.00 0.00 77 1006.9
20260506004049 81 187 9.0 13.0 0.00 0.00 0.00 76 1006.9
20260506003545 81 181 6.0 7.0 0.00 0.00 0.00 76 1006.7
20260506003041 81 197 5.0 6.0 0.00 0.00 0.00 76 1007.1
20260506002537 81 196 7.0 8.0 0.00 0.00 0.00 75 1006.9
20260506002033 81 208 7.0 8.0 0.00 0.00 0.00 75 1007.0
20260506001529 81 230 8.0 9.0 0.00 0.00 0.00 75 1007.2
20260506001022 81 189 8.0 9.0 0.00 0.00 0.00 74 1007.2
20260506000519 81 166 7.0 9.0 0.00 0.00 0.00 74 1007.0
20260506000016 81 192 6.0 7.0 0.00 0.00 0.00 75 1006.9
20260505235515 81 198 7.0 8.0 0.00 0.00 0.00 74 1006.8
20260505235011 81 184 9.0 11.0 0.00 0.00 0.00 74 1007.0
20260505234508 81 264 7.0 9.0 0.00 0.00 0.00 74 1006.8
20260505234005 81 199 9.0 13.0 0.00 0.00 0.00 74 1006.6
20260505233502 81 230 12.0 17.0 0.00 0.00 0.00 74 1006.6
20260505233000 82 217 8.0 11.0 0.00 0.00 0.00 74 1006.8
20260505232458 81 210 10.0 13.0 0.00 0.00 0.00 74 1006.6
20260505231954 81 225 11.0 13.0 0.00 0.00 0.00 74 1006.4
20260505231451 82 210 11.0 13.0 0.00 0.00 0.00 74 1006.3
20260505230950 82 224 11.0 14.0 0.00 0.00 0.00 73 1006.6
20260505230447 82 184 9.0 10.0 0.00 0.00 0.00 73 1006.3
20260505225943 82 198 11.0 13.0 0.00 0.00 0.00 72 1006.2
20260505225441 82 228 9.0 10.0 0.00 0.00 0.00 72 1006.1
20260505224936 82 272 9.0 11.0 0.00 0.00 0.00 72 1006.2
20260505224433 82 194 8.0 11.0 0.00 0.00 0.00 72 1006.4
20260505223931 82 220 10.0 11.0 0.00 0.00 0.00 71 1006.3
20260505223427 83 223 12.0 14.0 0.00 0.00 0.00 70 1006.1
20260505222924 83 221 13.0 14.0 0.00 0.00 0.00 70 1006.3
20260505222420 83 239 9.0 13.0 0.00 0.00 0.00 71 1006.4
20260505221916 83 187 12.0 15.0 0.00 0.00 0.00 70 1006.0
20260505221414 83 193 11.0 14.0 0.00 0.00 0.00 70 1006.1
20260505220911 83 194 8.0 10.0 0.00 0.00 0.00 71 1006.2
20260505220407 82 224 8.0 11.0 0.00 0.00 0.00 72 1006.3
20260505215905 83 249 11.0 15.0 0.00 0.00 0.00 70 1006.3
20260505215403 83 219 9.0 9.0 0.00 0.00 0.00 71 1006.2
20260505214901 83 179 10.0 13.0 0.00 0.00 0.00 71 1006.4
20260505214358 83 234 10.0 11.0 0.00 0.00 0.00 71 1006.4
20260505213855 83 213 9.0 10.0 0.00 0.00 0.00 71 1006.4
20260505213353 83 251 5.0 6.0 0.00 0.00 0.00 72 1006.6
20260505212849 84 223 12.0 14.0 0.00 0.00 0.00 70 1006.8
20260505212346 83 186 9.0 10.0 0.00 0.00 0.00 70 1006.9
20260505211842 84 203 8.0 10.0 0.00 0.00 0.00 71 1006.9
20260505211340 83 202 7.0 9.0 0.00 0.00 0.00 70 1006.9
20260505210836 84 233 9.0 11.0 0.00 0.00 0.00 70 1007.0
20260505210333 84 190 8.0 9.0 0.00 0.00 0.00 70 1007.0
20260505205830 83 205 13.0 15.0 0.00 0.00 0.00 71 1007.2
20260505205328 84 229 9.0 11.0 0.00 0.00 0.00 70 1007.0